Regional Weather Roundup
Issued by NWS

Home | Current Version | Previous Version | Graphics & Text | Print | Product List | Glossary On
Versions: 1 2 3 4 5 6 7 8 9 10 11 12 13 14 15 16 17 18 19 20 21 22 23 24 25 26 27 28 29 30 31 32 33 34 35 36 37 38 39 40 41 42 43 44 45 46 47 48 49 50
000
ASUS43 KDTX 260510
RWRMI
MICHIGAN HOURLY REGIONAL WEATHER ROUNDUP
NATIONAL WEATHER SERVICE DETROIT/PONTIAC MI
100 AM EDT TUE SEP 26 2017

NOTE: "FAIR" INDICATES FEW OR NO CLOUDS BELOW 12,000 FEET WITH NO
SIGNIFICANT WEATHER AND/OR OBSTRUCTION TO VISIBILITY.

MIZ047>049-052>055-059>063-066>070-074>076-081>083-260600-
SOUTHEAST LOWER MICHIGAN

CITY           SKY/WX    TMP DP  RH WIND       PRES   REMARKS
ADRIAN         CLEAR     65  62  90 N3        30.00S
ALMA           CLEAR     62  57  86 CALM      29.98S
ANN ARBOR      PTCLDY    63  63 100 CALM      29.99S
BAD AXE        CLEAR     67  62  85 CALM      30.00R
CARO           CLEAR     65  62  91 CALM      29.98S
DETROIT CITY   MOCLDY    73  66  78 CALM      29.99S
DETROIT        CLOUDY    73  70  90 CALM      29.99S
FLINT          CLEAR     71  62  73 S5        29.99S
GROSSE ILE     CLOUDY    72  69  90 CALM      29.98S
HILLSDALE      CLOUDY    64  61  88 CALM      30.00S
HOWELL         CLEAR     69  62  78 CALM      30.00S

CITY           SKY/WX    TMP DP  RH WIND       PRES   REMARKS
JACKSON        CLEAR     66  61  84 CALM      30.00S
LAMBERTVILLE   CLOUDY    70  66  88 CALM      29.98S
LANSING        CLEAR     71  60  68 S3        30.00R
LAPEER         FAIR      65  64  96 CALM      30.00S
MASON          CLEAR     69  62  79 SE3       29.99F
MONROE         CLOUDY    74  67  80 CALM      29.98S
MT. CLEMENS    PTCLDY    69  69 100 CALM      29.98S
PONTIAC        PTCLDY    69  64  84 CALM      30.00S
PORT HOPE        N/A     71  66  84 CALM      29.97S
PORT HURON     FOG       64  63  94 CALM      30.00S VSB 1/4
TRI CITIES     CLEAR     70  67  90 S5        29.98S FOG
MIDLAND        FAIR      65  65 100 CALM      29.97S FOG
TROY           PTCLDY    73  64  71 CALM      30.01F
SAGINAW HB     CLEAR     72  61  68 S3        29.97F
$$
MIZ043>046-050>051-056>058-064>065-071>073-077>080-260600-
SOUTHWEST LOWER MICHIGAN

CITY           SKY/WX    TMP DP  RH WIND       PRES   REMARKS
BATTLE CREEK   PTCLDY    68  60  75 CALM      29.99S
BENTON HARBOR  CLEAR     63  59  87 CALM      29.96S
BIG RAPIDS     CLEAR     61  55  82 CALM      29.98F
COLDWATER      CLEAR     64  63  99 E3        29.99S
FREMONT        FAIR      64  61  90 E3        29.97S
HOLLAND        CLEAR     64  58  80 SE3       29.97S
GRAND RAPIDS   CLEAR     67  60  78 CALM      29.98S
IONIA          FAIR      64  56  75 CALM      29.98S
KALAMAZOO      CLEAR     66  58  75 CALM      29.98F
LUDINGTON      CLEAR     57  56  97 CALM      29.94F
MARSHALL       CLEAR     67  62  83 CALM      29.99S
MOUNT PLEASANT MOCLDY    66  63  91 CALM      29.97F
MUSKEGON       CLEAR     65  59  81 CALM      29.96S
SOUTH HAVEN    CLEAR     63  60  90 CALM      29.97R
$$
MIZ016>042-260600-
NORTHERN LOWER MICHIGAN

CITY           SKY/WX    TMP DP  RH WIND       PRES   REMARKS
ALPENA         PTCLDY    63  63 100 CALM      29.98S
BEAVER ISLAND  PTCLDY    62  61  97 CALM      29.96F FOG
BELLAIRE       CLEAR     60  59  96 CALM      29.97S FOG
CADILLAC       CLEAR     62  55  77 CALM      29.99F
CHARLEVOIX     CLEAR     65  60  83 CALM      29.99S
FRANKFORT      CLEAR     60  60  99 CALM      29.95S
GAYLORD        CLEAR     61  55  81 CALM      30.00S
GRAYLING       CLEAR     58  54  88 CALM      30.01R
HARBOR SPRINGS CLEAR     65  62  92 CALM      29.96S
HOUGHTON LAKE  CLEAR     62  60  93 CALM      30.00S
MANISTEE       CLEAR     60  59  96 E3        29.95F
OSCODA         CLEAR     70  67  92 CALM      29.97F
PELLSTON       CLEAR     58  57  97 CALM      29.96S FOG
ROGERS CITY    CLEAR     72  64  77 SW8       29.97F
TRAVERSE CITY  CLEAR     66  59  78 CALM      29.95S
$$
MIZ007>008-015-260600-
EASTERN UPPER MICHIGAN

CITY           SKY/WX    TMP DP  RH WIND       PRES   REMARKS
KINROSS        CLEAR     65  62  90 N3        29.97S
MACKINAC ISLAN CLEAR     67  67 100 SE3       29.95S FOG
NEWBERRY       CLEAR     62  61  97 CALM      29.96S
S. S. MARIE    MOCLDY    69  64  84 CALM      29.96S
MUNISING         N/A     63  63 100 NW10      29.98R
$$
MIZ004>006-011>014-085-260600-
CENTRAL UPPER MICHIGAN

CITY           SKY/WX    TMP DP  RH WIND       PRES   REMARKS
MANISTIQUE     HAZE      61  55  81 CALM      29.95S VSB 1/4
MENOMINEE      CLEAR     70  63  78 CALM      29.94R
SAWYER-GWINN   LGT RAIN  60  59  98 NE12      29.97F
$$
MIZ001>003-009>011-084-260600-
WESTERN UPPER MICHIGAN

CITY           SKY/WX    TMP DP  RH WIND       PRES   REMARKS
IRON MOUNTAIN  LGT RAIN  66  62  87 E5        29.95F FOG
HOUGHTON       CLOUDY    56  53  90 NE5       29.98F
COPPER HARBOR    N/A     58  56  93 E8        29.99F
IRONWOOD       CLOUDY    57  56  96 E7        29.99S
$$

ABBREVIATIONS USED IN REMARKS
   TC - TEMPERATURE IN CELSIUS
  WCI - WIND CHILL INDEX
   HX - HEAT INDEX
  VSB - VISIBILITY





USA.gov is the U.S. government's official web portal to all federal, state and local government web resources and services.